Location: Pompeys Pillar
(45.9913°N, 107.9528°W)
Time: 04:24:37
(UTC+00:00)

Tiros 1 - Pass Details

Date: 30 May 2022
Orbit: 629 x 663 km, 48.4° (Epoch: 30 June)

Event Time Altitude Azimuth Distance (km) Brightness Sun altitude
Rises 09:00:41 0° 273° (W) 2,917 - -17.7°
Exits shadow 09:01:57 - 275° (W) 2,423 9.9 -17.6°
Reaches altitude 10° 09:03:01 10° 277° (W) 2,012 9.5 -17.5°
Maximum altitude 09:07:37 64° 359° (N) 705 7.5 -17.1°
Drops below altitude 10° 09:12:16 10° 81° (E) 2,029 10.2 -16.7°
Sets 09:14:38 0° 85° (E) 2,944 11.1 -16.5°
